TimeADT,TemperatureF,Dew PointF,Humidity,Sea Level PressureIn,VisibilityMPH,Wind Direction,Wind SpeedMPH,Gust SpeedMPH,PrecipitationIn,Events,Conditions,WindDirDegrees,DateUTC
12:00 AM,69.8,59.0,68,29.94,12.0,WSW,20.7,26.5,N/A,,Overcast,250,2013-07-14 03:00:00
1:00 AM,69.8,57.2,64,29.92,15.0,West,16.1,23.0,N/A,,Overcast,260,2013-07-14 04:00:00
2:00 AM,69.8,57.2,64,29.91,15.0,West,17.3,-,N/A,,Overcast,260,2013-07-14 05:00:00
3:00 AM,70,58,57,29.91,15,West,16.1,,,,Partly Cloudy,260,2013-07-14 06:00:00
3:00 AM,69.8,57.2,64,29.91,15.0,West,16.1,-,N/A,,Overcast,260,2013-07-14 06:00:00
4:00 AM,69.8,59.0,68,29.91,15.0,WSW,12.7,-,N/A,,Mostly Cloudy,250,2013-07-14 07:00:00
5:00 AM,69.8,59.0,68,29.93,15.0,WSW,8.1,-,N/A,,Mostly Cloudy,250,2013-07-14 08:00:00
6:00 AM,69.8,59.0,68,29.94,15.0,West,12.7,-,N/A,,Overcast,270,2013-07-14 09:00:00
7:00 AM,69.8,60.8,73,29.95,15.0,West,10.4,-,N/A,,Mostly Cloudy,270,2013-07-14 10:00:00
8:00 AM,71.6,60.8,69,29.95,15.0,WNW,11.5,19.6,N/A,,Scattered Clouds,290,2013-07-14 11:00:00
9:00 AM,74,60,53,29.96,15,WNW,16.1,,,,Mostly Cloudy,290,2013-07-14 12:00:00
9:00 AM,75.2,60.8,61,29.96,15.0,WNW,16.1,-,N/A,,Mostly Cloudy,290,2013-07-14 12:00:00
10:00 AM,73.4,60.8,65,29.96,15.0,West,12.7,-,N/A,,Mostly Cloudy,260,2013-07-14 13:00:00
11:00 AM,75.2,60.8,61,29.95,15.0,West,15.0,-,N/A,,Mostly Cloudy,280,2013-07-14 14:00:00
12:00 PM,77.0,60.8,57,29.95,15.0,WSW,17.3,24.2,N/A,,Mostly Cloudy,250,2013-07-14 15:00:00
1:00 PM,80.6,60.8,51,29.94,15.0,West,16.1,23.0,N/A,,Mostly Cloudy,270,2013-07-14 16:00:00
2:00 PM,80.6,62.6,54,29.93,15.0,WNW,12.7,19.6,N/A,,Scattered Clouds,290,2013-07-14 17:00:00
3:00 PM,81,61,40,29.92,15,West,11.5,,,,Mostly Cloudy,280,2013-07-14 18:00:00
3:00 PM,80.6,60.8,51,29.92,15.0,West,11.5,-,N/A,,Mostly Cloudy,270,2013-07-14 18:00:00
4:00 PM,84.2,60.8,45,29.92,15.0,NW,12.7,18.4,N/A,,Mostly Cloudy,310,2013-07-14 19:00:00
5:00 PM,82.4,59.0,45,29.93,15.0,WNW,15.0,23.0,N/A,,Mostly Cloudy,290,2013-07-14 20:00:00
6:00 PM,80.6,60.8,51,29.94,15.0,NW,13.8,19.6,N/A,,Scattered Clouds,320,2013-07-14 21:00:00
7:00 PM,80.6,59.0,48,29.94,15.0,WNW,12.7,-,N/A,,Mostly Cloudy,300,2013-07-14 22:00:00
8:00 PM,80.6,59.0,48,29.95,15.0,West,10.4,17.3,N/A,,Mostly Cloudy,280,2013-07-14 23:00:00
9:00 PM,78,57,38,29.95,15,WNW,9.2,,,,Scattered Clouds,290,2013-07-15 00:00:00
9:00 PM,77.0,57.2,50,29.95,15.0,West,8.1,-,N/A,,Mostly Cloudy,280,2013-07-15 00:00:00
10:00 PM,75.2,57.2,53,29.96,15.0,West,3.5,-,N/A,,Overcast,270,2013-07-15 01:00:00
11:00 PM,73.4,57.2,57,29.96,15.0,West,5.8,-,N/A,,Overcast,270,2013-07-15 02:00:00